DW0826 Weather Reports


Display with metric or nautical units.
time (UTC)temp
F
wind
direction
speed
MPH
gust
MPH
rain 1hr
in
rain 24hr
in
rain mn
in
humidity
%
barometer
mb
20260902043026 54 0.0 0.0 0.00 0.00 0.00 62 1020.3
20260902040047 55 0.0 0.0 0.00 0.00 0.00 60 1019.6
20260902033025 55 0.0 0.0 0.00 0.00 0.00 59 1019.1
20260902030025 57 0.0 0.0 0.00 0.00 0.00 57 1019.5
20260902023026 58 0.0 0.0 0.00 0.00 0.00 55 1019.0
20260902020025 59 0.0 0.0 0.00 0.00 0.00 54 1018.9
20260902013027 60 0.0 2.0 0.00 0.00 0.00 51 1019.1
20260902010027 62 135 1.0 11.0 0.00 0.00 0.00 48 1019.4
20260902003047 62 113 1.0 8.0 0.00 0.00 0.00 47 1019.8
20260902000027 63 90 1.0 13.0 0.00 0.00 0.00 46 1019.6
20260901233027 65 90 1.0 10.0 0.00 0.00 0.00 46 1020.1
20260901230027 64 135 1.0 16.0 0.00 0.00 0.00 44 1020.5
20260901223027 66 113 2.0 16.0 0.00 0.00 0.00 44 1020.5
20260901220027 67 90 2.0 13.0 0.00 0.00 0.00 42 1020.9
20260901213026 66 90 3.0 13.0 0.00 0.00 0.00 44 1021.1
20260901210027 67 90 4.0 16.0 0.00 0.00 0.00 44 1021.0
20260901203027 67 113 4.0 15.0 0.00 0.00 0.00 44 1021.3
20260901200027 68 113 3.0 13.0 0.00 0.00 0.00 42 1021.5
20260901193028 66 90 4.0 14.0 0.00 0.00 0.00 43 1021.3
20260901190026 66 90 3.0 12.0 0.00 0.00 0.00 42 1021.2
20260901183026 67 135 3.0 12.0 0.00 0.00 0.00 43 1021.2
20260901180047 65 135 2.0 15.0 0.00 0.00 0.00 43 1020.7
20260901173028 65 90 1.0 12.0 0.00 0.00 0.00 45 1020.5
20260901170026 64 0.0 1.0 0.00 0.00 0.00 48 1020.2
20260901163027 64 0.0 1.0 0.00 0.00 0.00 50 1019.9
20260901160026 64 0.0 2.0 0.00 0.00 0.00 49 1019.7
20260901153026 62 0.0 1.0 0.00 0.00 0.00 50 1019.6
20260901150026 60 0.0 1.0 0.00 0.00 0.00 51 1019.3
20260901143026 59 0.0 0.0 0.00 0.00 0.00 53 1019.0
20260901140027 56 0.0 0.0 0.00 0.00 0.00 58 1018.2
20260901133047 56 0.0 0.0 0.00 0.00 0.00 59 1018.1
20260901130026 57 0.0 0.0 0.00 0.00 0.00 57 1018.5
20260901123047 58 0.0 0.0 0.00 0.00 0.00 57 1018.7
20260901120026 60 0.0 0.0 0.00 0.00 0.00 53 1019.4
20260901113047 60 0.0 0.0 0.00 0.00 0.00 51 1019.2
20260901110047 61 0.0 0.0 0.00 0.00 0.00 52 1019.2
20260901103026 61 0.0 0.0 0.00 0.00 0.00 50 1019.6
20260901100207 61 0.0 0.0 0.00 0.00 0.00 49 1019.8
20260901093025 62 0.0 0.0 0.00 0.00 0.00 50 1019.8
20260901090026 62 0.0 0.0 0.00 0.00 0.00 49 1020.0
20260901083026 62 0.0 0.0 0.00 0.00 0.00 48 1020.1
20260901080047 63 0.0 0.0 0.00 0.00 0.00 48 1020.3
20260901073026 63 0.0 0.0 0.00 0.00 0.00 48 1020.0
20260901070046 64 0.0 0.0 0.00 0.00 0.00 48 1020.2
20260901063045 63 0.0 0.0 0.00 0.00 0.00 49 1020.1
20260901060106 62 0.0 0.0 0.00 0.00 0.00 50 1019.7
20260901053026 62 0.0 0.0 0.00 0.00 0.00 50 1019.4
20260901050028 62 0.0 0.0 0.00 0.00 0.00 50 1019.3